Miscellaneous Local Product
Issued by NWS Hastings, NE

Home | Current Version | Previous Version | Text Only | Print | Product List | Glossary On
Versions: 1 2 3 4 5 6 7 8 9 10 11 12 13 14 15 16 17 18 19 20 21 22 23 24 25 26 27 28 29 30 31 32 33 34 35 36 37 38 39 40 41 42 43 44 45 46 47 48 49 50
000
AXUS43 KGID 200010
MISGRI

GID CWA HOURLY WEATHER ROUNDUP
NATIONAL WEATHER SERVICE HASTINGS NE
700 PM CDT FRI SEP 19 2014

NOTE: "FAIR" INDICATES FEW OR NO CLOUDS BELOW 12,000 FEET WITH NO
SIGNIFICANT WEATHER AND/OR OBSTRUCTIONS TO VISIBILITY.

...SOUTH CENTRAL NEBRASKA...

CITY           SKY/WX    TMP DP  RH WIND       PRES   REMARKS
GRAND ISLAND   CLEAR     85  64  49 S14G25    29.80S
HASTINGS       CLEAR     85  59  41 S10G20    29.81S
KEARNEY        CLEAR     82  63  51 S14       29.82R
ORD            CLEAR     85  61  44 S13       29.74F
YORK           CLEAR     82  66  57 S9        29.81S
AURORA         CLEAR     84  60  45 S12G20    29.80F
LEXINGTON      CLEAR     86  59  39 S9        29.81R
HOLDREGE       CLEAR     84  58  41 S12       29.82S
HEBRON         CLEAR     84  62  46 S8        29.82S

...NEBRASKA PANHANDLE...

CITY           SKY/WX    TMP DP  RH WIND       PRES   REMARKS
CHADRON        CLEAR     85  50  29 N8        29.83S
ALLIANCE       CLEAR     84  49  29 N12       29.87R
SCOTTSBLUFF    CLEAR     88  48  25 NW9       29.87R
SIDNEY         MOCLDY    80  50  34 SE6       29.92R

...WESTERN AND NORTH CENTRAL NEBRASKA...

CITY           SKY/WX    TMP DP  RH WIND       PRES   REMARKS
VALENTINE      CLEAR     85  54  34 N9        29.80R
AINSWORTH      CLEAR     79  61  53 NE5       29.80S
ONEILL         CLEAR     83  68  60 N5        29.76S
BROKEN BOW     CLEAR     89  57  33 S13       29.77F
IMPERIAL       CLEAR     88  52  29 S7        29.83S
NORTH PLATTE   CLEAR     85  59  41 S10       29.78F
MCCOOK         CLEAR     88  60  38 S12       29.82S

...EASTERN NEBRASKA...

CITY           SKY/WX    TMP DP  RH WIND       PRES   REMARKS
NORFOLK        CLEAR     84  64  50 S9        29.75S
SO SIOUX CITY  CLEAR     84  66  54 S7        29.74R
TEKAMAH        CLEAR     85  65  51 S10       29.76R
ALBION         CLEAR     82  64  53 S8        29.77S
OMAHA EPPLEY   PTCLDY    83  69  62 S18       29.79R
OFFUTT AFB     CLEAR     81  73  78 SE13      29.80R
MILLARD        CLEAR     85  69  58 S5        29.79S
LINCOLN        CLEAR     85  65  51 S14       29.80S
NEBRASKA CITY    N/A     79  64  60 S15       29.84S
BEATRICE       CLEAR     85  65  52 S9G16     29.83S
FALLS CITY     CLEAR     78  69  73 S17       29.85F

...NORTHERN KANSAS...

CITY           SKY/WX    TMP DP  RH WIND       PRES   REMARKS
GOODLAND       CLEAR     84  58  40 S18       29.88S
HILL CITY      PTCLDY    88  57  34 S14G25    29.84S
NORTON         CLEAR     88  52  29 S12G17    29.83
SMITH CENTER   CLEAR     84  61  45 S14       29.83S
BELOIT         CLEAR     84  61  45 S8        29.82F
HAYS           CLEAR     88  61  40 S14       29.87R
RUSSELL        CLEAR     83  60  45 S12       29.85F
CONCORDIA      CLEAR     83  67  58 S9        29.84F
SALINA         CLEAR     85  64  49 S12       29.86F
TOPEKA         CLEAR     79  69  71 S10G21    29.91F



USA.gov is the U.S. government's official web portal to all federal, state and local government web resources and services.